| time (UTC) | temp C | wind direction | speed KPH | gust KPH | rain 1hr cm | rain 24hr cm | rain mn cm | humidity % | barometer mb |
| 20260510153333 | 21 | 198 | 0.0 | 6.4 | 0.00 | 0.18 | 0.00 | 71 | 1012.7 |
| 20260510151824 | 20 | 189 | 1.6 | 6.4 | 0.00 | 0.18 | 0.00 | 75 | 1012.8 |
| 20260510150320 | 20 | 191 | 1.6 | 6.4 | 0.00 | 0.18 | 0.00 | 78 | 1012.9 |
| 20260510144831 | 18 | 207 | 1.6 | 8.0 | 0.00 | 0.18 | 0.00 | 83 | 1013.0 |
| 20260510143342 | 17 | 184 | 1.6 | 6.4 | 0.00 | 0.18 | 0.00 | 87 | 1013.0 |
| 20260510141816 | 16 | 312 | 0.0 | 3.2 | 0.00 | 0.18 | 0.00 | 90 | 1012.9 |
| 20260510140330 | 16 | 305 | 1.6 | 4.8 | 0.00 | 0.18 | 0.00 | 87 | 1013.1 |
| 20260510134827 | 15 | 306 | 1.6 | 6.4 | 0.00 | 0.18 | 0.00 | 86 | 1012.8 |
| 20260510133339 | 14 | 310 | 0.0 | 3.2 | 0.00 | 0.18 | 0.00 | 86 | 1012.9 |
| 20260510131843 | 13 | 310 | 0.0 | 0.0 | 0.00 | 0.18 | 0.00 | 87 | 1013.0 |
| 20260510130321 | 12 | 310 | 0.0 | 1.6 | 0.00 | 0.18 | 0.00 | 87 | 1013.0 |
| 20260510124834 | 12 | 310 | 0.0 | 3.2 | 0.00 | 0.18 | 0.00 | 87 | 1013.1 |
| 20260510123349 | 11 | 310 | 0.0 | 1.6 | 0.00 | 0.18 | 0.00 | 87 | 1012.9 |
| 20260510121822 | 11 | 310 | 0.0 | 3.2 | 0.00 | 0.18 | 0.00 | 87 | 1012.6 |
| 20260510120351 | 11 | 310 | 0.0 | 4.8 | 0.00 | 0.18 | 0.00 | 87 | 1012.5 |
| 20260510114821 | 11 | 310 | 0.0 | 3.2 | 0.00 | 0.18 | 0.00 | 87 | 1012.3 |
| 20260510113331 | 11 | 310 | 0.0 | 0.0 | 0.00 | 0.18 | 0.00 | 87 | 1012.2 |
| 20260510111829 | 11 | 310 | 0.0 | 0.0 | 0.00 | 0.18 | 0.00 | 87 | 1012.1 |
| 20260510110323 | 10 | 310 | 0.0 | 0.0 | 0.00 | 0.18 | 0.00 | 87 | 1012.2 |
| 20260510104819 | 10 | 310 | 0.0 | 0.0 | 0.00 | 0.18 | 0.00 | 87 | 1012.0 |
| 20260510103314 | 10 | 310 | 0.0 | 0.0 | 0.00 | 0.18 | 0.00 | 87 | 1011.5 |
| 20260510101831 | 10 | 310 | 0.0 | 0.0 | 0.00 | 0.18 | 0.00 | 87 | 1011.6 |
| 20260510100325 | 10 | 310 | 0.0 | 0.0 | 0.00 | 0.18 | 0.00 | 87 | 1011.6 |
| 20260510094817 | 10 | 310 | 0.0 | 0.0 | 0.00 | 0.18 | 0.18 | 87 | 1011.3 |
| 20260510093316 | 10 | 310 | 0.0 | 0.0 | 0.00 | 0.18 | 0.18 | 87 | 1011.4 |
| 20260510091848 | 10 | 310 | 0.0 | 1.6 | 0.00 | 0.18 | 0.18 | 87 | 1011.3 |
| 20260510090358 | 10 | 310 | 0.0 | 3.2 | 0.00 | 0.18 | 0.18 | 87 | 1011.3 |
| 20260510084825 | 10 | 309 | 1.6 | 4.8 | 0.00 | 0.18 | 0.18 | 87 | 1011.6 |
| 20260510083318 | 9 | 309 | 0.0 | 6.4 | 0.00 | 0.18 | 0.18 | 87 | 1011.8 |
| 20260510081853 | 9 | 309 | 1.6 | 6.4 | 0.00 | 0.18 | 0.18 | 87 | 1011.4 |
| 20260510080322 | 9 | 309 | 0.0 | 0.0 | 0.00 | 0.18 | 0.18 | 87 | 1010.8 |
| 20260510074901 | 9 | 309 | 0.0 | 0.0 | 0.00 | 0.18 | 0.18 | 87 | 1010.5 |
| 20260510073322 | 8 | 309 | 0.0 | 0.0 | 0.00 | 0.18 | 0.18 | 87 | 1010.7 |
| 20260510071856 | 8 | 309 | 0.0 | 0.0 | 0.00 | 0.18 | 0.18 | 87 | 1010.7 |
| 20260510070327 | 8 | 309 | 0.0 | 0.0 | 0.00 | 0.18 | 0.18 | 88 | 1010.7 |
| 20260510064818 | 8 | 309 | 0.0 | 0.0 | 0.00 | 0.18 | 0.18 | 88 | 1010.3 |
| 20260510063335 | 8 | 309 | 0.0 | 0.0 | 0.00 | 0.18 | 0.18 | 88 | 1010.1 |
| 20260510061826 | 8 | 309 | 0.0 | 0.0 | 0.00 | 0.18 | 0.18 | 87 | 1010.1 |
| 20260510060321 | 8 | 309 | 0.0 | 0.0 | 0.00 | 0.18 | 0.18 | 87 | 1010.2 |
| 20260510054825 | 8 | 309 | 0.0 | 0.0 | 0.00 | 0.18 | 0.18 | 87 | 1010.4 |
| 20260510053320 | 8 | 309 | 0.0 | 0.0 | 0.00 | 0.18 | 0.18 | 87 | 1010.6 |
| 20260510051816 | 8 | 309 | 0.0 | 0.0 | 0.00 | 0.18 | 0.18 | 87 | 1010.6 |
| 20260510050327 | 8 | 309 | 0.0 | 0.0 | 0.00 | 0.18 | 0.18 | 88 | 1010.7 |
| 20260510044824 | 8 | 309 | 0.0 | 0.0 | 0.00 | 0.18 | 0.18 | 88 | 1010.8 |
| 20260510043333 | 8 | 309 | 0.0 | 0.0 | 0.00 | 0.18 | 0.18 | 88 | 1010.8 |
| 20260510041823 | 8 | 309 | 0.0 | 0.0 | 0.00 | 0.18 | 0.18 | 88 | 1010.8 |
| 20260510040331 | 8 | 309 | 0.0 | 0.0 | 0.00 | 0.18 | 0.18 | 88 | 1011.0 |
| 20260510034822 | 8 | 309 | 0.0 | 0.0 | 0.00 | 0.18 | 0.18 | 88 | 1010.9 |
| 20260510033336 | 8 | 309 | 0.0 | 0.0 | 0.00 | 0.18 | 0.18 | 88 | 1010.6 |
| 20260510031822 | 9 | 309 | 0.0 | 0.0 | 0.00 | 0.18 | 0.18 | 88 | 1010.6 |
| 20260510030355 | 9 | 309 | 0.0 | 0.0 | 0.00 | 0.18 | 0.18 | 88 | 1010.4 |
| 20260510024823 | 9 | 309 | 0.0 | 0.0 | 0.00 | 0.18 | 0.18 | 88 | 1010.4 |
| 20260510023337 | 10 | 309 | 0.0 | 0.0 | 0.00 | 0.18 | 0.18 | 88 | 1010.4 |
| 20260510021847 | 10 | 309 | 0.0 | 0.0 | 0.00 | 0.18 | 0.18 | 88 | 1010.2 |
| 20260510020321 | 10 | 309 | 0.0 | 0.0 | 0.00 | 0.18 | 0.18 | 88 | 1010.3 |
| 20260510014836 | 10 | 309 | 0.0 | 0.0 | 0.00 | 0.18 | 0.18 | 88 | 1010.2 |
| 20260510013359 | 10 | 309 | 0.0 | 0.0 | 0.00 | 0.18 | 0.18 | 89 | 1010.3 |
| 20260510011824 | 11 | 309 | 0.0 | 0.0 | 0.00 | 0.18 | 0.18 | 89 | 1010.1 |
| 20260510010335 | 11 | 309 | 0.0 | 0.0 | 0.00 | 0.18 | 0.18 | 89 | 1010.1 |
| 20260510004827 | 11 | 309 | 0.0 | 0.0 | 0.00 | 0.18 | 0.18 | 89 | 1009.8 |
| 20260510003324 | 12 | 309 | 0.0 | 0.0 | 0.00 | 0.18 | 0.18 | 89 | 1009.8 |
| 20260510001817 | 12 | 309 | 0.0 | 0.0 | 0.00 | 0.18 | 0.18 | 89 | 1009.7 |
| 20260510000314 | 12 | 309 | 0.0 | 0.0 | 0.00 | 0.18 | 0.18 | 89 | 1009.7 |
| 20260509234827 | 12 | 309 | 0.0 | 0.0 | 0.00 | 0.18 | 0.18 | 89 | 1009.8 |
| 20260509233322 | 13 | 309 | 0.0 | 0.0 | 0.00 | 0.18 | 0.18 | 89 | 1009.7 |
| 20260509231819 | 13 | 309 | 0.0 | 0.0 | 0.00 | 0.18 | 0.18 | 89 | 1009.7 |
| 20260509230352 | 13 | 309 | 0.0 | 0.0 | 0.00 | 0.18 | 0.18 | 89 | 1009.5 |
| 20260509224825 | 13 | 309 | 0.0 | 0.0 | 0.00 | 0.18 | 0.18 | 89 | 1009.6 |
| 20260509223317 | 13 | 309 | 0.0 | 0.0 | 0.00 | 0.18 | 0.18 | 89 | 1009.6 |
| 20260509221813 | 13 | 309 | 0.0 | 4.8 | 0.00 | 0.18 | 0.18 | 89 | 1009.5 |
| 20260509220328 | 13 | 309 | 0.0 | 3.2 | 0.00 | 0.18 | 0.18 | 89 | 1009.6 |
| 20260509214818 | 13 | 309 | 0.0 | 0.0 | 0.00 | 0.18 | 0.18 | 89 | 1009.7 |
| 20260509213355 | 13 | 309 | 0.0 | 0.0 | 0.10 | 0.18 | 0.18 | 90 | 1009.9 |
| 20260509211839 | 13 | 309 | 0.0 | 0.0 | 0.10 | 0.18 | 0.18 | 89 | 1010.0 |
| 20260509210330 | 13 | 309 | 0.0 | 1.6 | 0.10 | 0.18 | 0.18 | 89 | 1009.9 |
| 20260509204818 | 13 | 309 | 0.0 | 3.2 | 0.13 | 0.18 | 0.18 | 89 | 1010.0 |
| 20260509203330 | 13 | 309 | 0.0 | 1.6 | 0.05 | 0.08 | 0.08 | 89 | 1009.5 |
| 20260509201826 | 13 | 309 | 0.0 | 3.2 | 0.05 | 0.08 | 0.08 | 89 | 1009.8 |
| 20260509200329 | 13 | 309 | 0.0 | 3.2 | 0.05 | 0.08 | 0.08 | 89 | 1009.5 |
| 20260509194828 | 13 | 309 | 0.0 | 4.8 | 0.03 | 0.05 | 0.05 | 89 | 1010.1 |
| 20260509193320 | 13 | 309 | 0.0 | 6.4 | 0.00 | 0.03 | 0.03 | 89 | 1010.2 |
| 20260509191835 | 13 | 294 | 0.0 | 1.6 | 0.00 | 0.03 | 0.03 | 89 | 1010.5 |
| 20260509190348 | 13 | 294 | 0.0 | 3.2 | 0.00 | 0.03 | 0.03 | 89 | 1010.7 |
| 20260509184836 | 13 | 294 | 1.6 | 3.2 | 0.03 | 0.03 | 0.03 | 88 | 1010.6 |
| 20260509183335 | 14 | 294 | 0.0 | 4.8 | 0.03 | 0.03 | 0.03 | 88 | 1010.9 |
| 20260509181823 | 15 | 294 | 0.0 | 3.2 | 0.03 | 0.03 | 0.03 | 87 | 1011.0 |
| 20260509180319 | 15 | 294 | 0.0 | 4.8 | 0.03 | 0.03 | 0.03 | 85 | 1011.1 |
| 20260509174851 | 15 | 294 | 0.0 | 3.2 | 0.00 | 0.00 | 0.00 | 83 | 1011.1 |
| 20260509173359 | 15 | 294 | 0.0 | 4.8 | 0.00 | 0.00 | 0.00 | 81 | 1010.7 |
| 20260509171820 | 15 | 292 | 0.0 | 3.2 | 0.00 | 0.00 | 0.00 | 83 | 1010.8 |
| 20260509170330 | 15 | 292 | 0.0 | 1.6 | 0.00 | 0.00 | 0.00 | 83 | 1011.0 |
| 20260509164827 | 15 | 292 | 0.0 | 0.0 | 0.00 | 0.00 | 0.00 | 84 | 1010.9 |
| 20260509163341 | 16 | 292 | 0.0 | 6.4 | 0.00 | 0.00 | 0.00 | 83 | 1011.0 |
| 20260509161849 | 16 | 292 | 0.0 | 6.4 | 0.00 | 0.00 | 0.00 | 79 | 1011.1 |
| 20260509160344 | 17 | 295 | 3.2 | 12.9 | 0.00 | 0.00 | 0.00 | 72 | 1011.3 |
| 20260509154826 | 17 | 216 | 0.0 | 3.2 | 0.00 | 0.00 | 0.00 | 73 | 1011.2 |